Temp
71 71 71 70 71 70 68 68 68 68 68 69 69 69 69 68 67 65 64 65 64 63 63 64 64 64 61 61 60 59 58 58 55 57 60 62 62 61 62 62 62 62 61
72 70 69 71 70 70 69 70 69 68 69 70 71 72 72 71 68 65 66 66 64 63 64 64 64 66 62 61 59 59 58 59 58 57 59 61 61 62 62 62 62 63 61
73 71 70 70 70 69 70 70 71 70 70 72 72 71 70 68 67 66 66 66 64 65 64 65 64 63 61 60 60 59 59 61 60 60 59 61 61 62 60 60 60 59 60
73 72 70 70 71 70 71 71 71 71 72 68 69 70 70 69 70 70 67 65 64 64 64 65 66 63 62 61 61 60 62 59 59 59 59 59 59 60 59 58 57 59 59
72 71 70 71 72 72 71 68 68 68 69 69 68 69 68 66 65 66 66 64 63 62 63 66 64 63 63 63 62 61 61 61 59 57 57 58 58 58 57 57 56 57 58
73 72 73 73 73 69 67 67 67 66 67 67 69 66 63 62 49 52 60 63 63 62 61 62 61 59 57 57 59 60 61 59 58 60 57 57 57 57 57 57 57 56 54
73 74 73 72 71 71 72 71 66 64 69 66 66 63 59 56 49 50 56 62 62 61 62 62 62 63 60 60 54 55 56 56 60 61 58 58 57 58 58 57 58 58 56
72 72 72 72 71 71 70 67 66 66 65 64 62 60 57 56 49 51 57 62 61 61 62 63 62 60 60 62 61 60 59 59 59 62 60 60 61 61 61 61 59 57 58
70 70 72 73 71 66 68 65 66 62 61 61 61 59 57 56 48 52 57 61 61 61 59 61 61 59 50 52 60 57 57 56 52 53 53 50 49 51 57 60 56 56 54
70 71 71 70 70 68 65 65 62 62 62 62 62 60 55 56 47 50 56 59 58 59 59 57 52 56 48 50 61 60 57 57 57 56 54 51 53 52 52 62 60 56 56
73 73 71 66 66 66 68 64 62 61 61 62 61 59 58 56 54 49 52 59 59 58 59 57 54 47 46 47 53 61 57 58 55 58 57 57 57 59 59 59 62 61 57
75 72 67 67 71 70 66 65 62 61 61 60 59 59 58 57 50 49 50 53 56 60 57 55 50 44 45 46 52 45 47 54 58 58 57 56 57 57 59 60 59 59 61
72 67 67 70 69 65 62 62 62 61 61 60 59 58 58 58 54 45 46 48 51 58 58 47 43 43 43 45 44 45 50 59 58 56 56 56 58 59 58 58 59 60 61
69 65 67 69 65 63 63 61 61 60 60 60 59 57 58 58 57 55 55 53 49 51 50 52 49 49 50 50 53 55 59 59 58 57 57 58 58 58 54 56 56 57 58
65 67 68 67 59 56 53 54 58 56 57 62 61 59 58 58 58 56 57 58 58 53 55 57 56 56 56 56 58 58 58 58 58 58 58 58 58 56 56 58 58 56 56
66 65 65 64 61 59 58 54 42 41 41 48 53 57 60 50 46 47 47 45 44 46 56 56 55 56 56 57 57 57 58 57 59 58 56 59 59 60 59 57 58 56 55
66 68 66 64 63 61 59 58 56 51 43 41 41 46 48 45 44 45 44 43 41 47 57 57 56 57 57 55 56 56 55 56 57 60 60 61 61 62 56 59 60 59 57
67 59 67 65 66 64 61 60 61 59 56 54 44 44 41 41 41 41 41 47 53 52 57 58 57 57 58 57 57 57 57 58 59 61 62 60 59 61 59 59 59 58 57
72 72 66 65 66 64 63 63 64 59 55 54 53 48 43 40 40 41 42 56 56 58 59 60 62 60 59 61 60 61 60 59 60 59 62 63 61 61 60 60 59 53 54
70 57 58 63 68 63 64 65 62 59 57 59 57 55 53 55 54 53 54 56 58 59 60 61 63 62 61 62 60 63 60 60 63 63 64 65 65 65 65 65 65 62 58
73 68 59 68 66 69 67 62 62 62 60 58 57 55 45 59 57 56 56 58 60 61 61 62 62 63 63 66 66 63 64 65 65 65 66 66 67 66 66 62 61 61 60
71 69 67 69 70 70 64 66 63 65 64 60 59 51 37 58 58 58 58 60 62 61 56 63 59 57 58 58 61 62 63 63 65 65 65 63 65 65 66 66 66 66 63
69 69 70 68 66 58 60 63 62 66 65 62 60 57 60 61 59 61 59 57 57 55 52 52 52 50 51 51 50 49 48 50 54 58 62 64 67 67 67 66 66 64 65
58 63 63 59 61 61 61 63 61 56 66 64 63 61 59 60 59 58 56 53 52 52 52 48 46 46 47 46 46 46 42 41 49 54 59 63 63 63 64 63 64 65 63
50 49 51 53 54 55 54 52 52 53 54 54 53 52 52 54 55 55 54 53 50 49 47 47 46 44 42 40 41 41 36 34 44 40 60 58 55 56 58 60 60 61 60
49 48 47 47 47 46 47 47 46 47 48 48 47 47 48 47 48 49 50 50 47 46 44 43 43 41 41 41 38 35 35 37 43 39 54 53 52 51 53 53 55 55 55
MSLP
995.72 996.50 997.29 997.98 998.59 999.11 999.68 1000.41 1001.04 1001.44 1001.91 1002.52 1003.18 1003.81 1004.43 1005.01 1005.55 1006.10 1006.49 1006.73 1007.26 1007.66 1007.82 1008.10 1008.39 1008.64 1009.06 1009.30 1009.50 1009.89 1010.20 1010.44 1010.88 1010.96 1010.87 1011.24 1011.58 1011.89 1012.04 1012.38 1012.83 1013.32 1013.84
995.67 996.52 997.30 997.92 998.56 999.16 999.75 1000.33 1000.89 1001.55 1002.08 1002.61 1003.21 1003.79 1004.43 1005.01 1005.52 1006.02 1006.39 1006.49 1007.05 1007.38 1007.67 1007.96 1008.22 1008.41 1008.96 1009.13 1009.48 1009.77 1010.08 1010.23 1010.53 1011.05 1011.20 1011.48 1011.80 1012.24 1012.45 1012.94 1013.33 1013.77 1014.15
996.00 996.88 997.65 998.12 998.70 999.37 999.85 1000.28 1000.92 1001.69 1002.29 1002.73 1003.35 1003.94 1004.49 1004.94 1005.37 1005.65 1005.95 1006.35 1006.68 1006.99 1007.36 1007.65 1007.87 1008.31 1008.72 1009.03 1009.33 1009.61 1010.02 1010.34 1010.63 1011.06 1011.61 1011.80 1012.19 1012.63 1013.16 1013.59 1014.10 1014.47 1014.79
996.17 996.94 997.82 998.49 998.93 999.62 1000.17 1000.71 1001.29 1001.83 1002.37 1002.95 1003.39 1003.79 1004.29 1004.71 1005.21 1005.53 1005.86 1006.22 1006.53 1006.88 1007.16 1007.40 1007.63 1007.98 1008.35 1008.74 1009.10 1009.39 1009.92 1010.49 1011.03 1011.42 1011.88 1012.36 1012.87 1013.36 1013.57 1014.16 1014.78 1015.22 1015.48
996.58 997.33 998.24 998.89 999.44 1000.10 1000.68 1001.21 1001.68 1002.12 1002.54 1003.06 1003.69 1004.15 1004.59 1005.07 1005.68 1005.70 1005.87 1006.19 1006.50 1006.82 1006.96 1007.17 1007.48 1007.64 1007.84 1008.15 1008.71 1009.31 1009.86 1010.56 1011.13 1011.75 1012.22 1012.69 1013.16 1013.55 1013.99 1014.60 1015.07 1015.53 1016.09
996.98 997.67 998.50 999.14 999.89 1000.50 1001.09 1001.69 1002.19 1002.62 1002.97 1003.53 1004.06 1004.62 1005.22 1005.86 1006.22 1005.96 1006.07 1006.40 1006.54 1006.79 1006.98 1007.38 1007.55 1008.03 1007.86 1008.11 1008.33 1008.76 1009.38 1010.25 1010.99 1011.60 1012.32 1012.79 1013.29 1013.68 1014.23 1014.65 1015.08 1015.72 1016.61
997.14 998.05 998.83 999.52 1000.16 1000.72 1001.33 1001.94 1002.63 1003.05 1003.27 1003.89 1004.42 1004.91 1005.67 1006.24 1006.39 1006.29 1006.28 1006.49 1006.64 1006.79 1006.95 1007.33 1007.85 1008.20 1008.06 1008.32 1008.62 1009.10 1009.63 1010.17 1010.29 1010.94 1011.91 1012.55 1013.17 1013.57 1014.13 1014.75 1015.26 1015.74 1016.38
997.43 998.21 999.02 999.59 1000.26 1000.98 1001.71 1002.47 1002.95 1003.35 1003.63 1004.25 1004.94 1005.57 1006.10 1006.70 1006.72 1006.62 1006.58 1006.56 1006.74 1006.97 1007.01 1007.27 1007.86 1008.28 1008.34 1008.45 1009.07 1009.92 1010.43 1010.72 1010.93 1011.24 1011.75 1012.35 1012.95 1013.61 1014.07 1014.61 1015.27 1016.05 1016.89
997.81 998.37 999.10 999.81 1000.65 1001.53 1002.17 1002.83 1003.16 1003.68 1004.19 1004.78 1005.33 1005.88 1006.49 1007.00 1007.03 1006.93 1006.90 1007.01 1007.11 1007.36 1007.55 1007.61 1007.96 1008.38 1008.62 1008.81 1009.39 1010.23 1010.92 1011.39 1011.37 1011.29 1011.82 1012.43 1013.09 1013.57 1013.98 1014.64 1015.55 1016.10 1016.97
997.90 998.45 999.06 999.86 1000.83 1001.72 1002.41 1003.07 1003.41 1003.91 1004.45 1004.99 1005.81 1006.23 1006.74 1007.15 1007.20 1007.18 1007.22 1007.31 1007.62 1007.87 1008.14 1008.43 1008.40 1008.60 1008.85 1009.23 1009.70 1010.30 1011.13 1011.75 1012.08 1012.62 1013.02 1013.46 1013.48 1013.96 1014.21 1014.33 1015.05 1015.75 1016.63
997.66 998.47 999.41 1000.32 1001.08 1001.79 1002.49 1002.99 1003.63 1004.27 1004.88 1005.58 1006.04 1006.63 1006.97 1007.30 1007.61 1007.53 1007.60 1007.73 1007.96 1008.24 1008.56 1008.98 1009.25 1009.05 1009.37 1009.65 1009.93 1010.49 1011.21 1011.82 1012.31 1012.75 1013.22 1013.63 1013.98 1014.34 1014.58 1014.76 1015.02 1015.37 1016.13
997.74 998.75 999.95 1000.74 1001.33 1002.01 1002.54 1003.18 1003.84 1004.55 1005.34 1005.94 1006.44 1006.87 1007.32 1007.65 1007.80 1007.81 1007.85 1007.89 1008.11 1008.41 1008.96 1009.45 1009.83 1009.70 1009.92 1010.21 1010.63 1011.04 1011.51 1011.98 1012.51 1012.98 1013.40 1013.80 1014.15 1014.50 1014.82 1015.00 1015.23 1015.72 1016.08
998.22 999.44 1000.26 1000.83 1001.53 1002.10 1002.71 1003.54 1004.24 1004.85 1005.47 1006.06 1006.44 1006.94 1007.44 1007.74 1008.10 1008.18 1008.19 1008.24 1008.38 1008.81 1009.27 1009.84 1010.14 1010.33 1010.67 1011.03 1011.35 1011.69 1011.94 1012.26 1012.72 1013.12 1013.55 1013.93 1014.27 1014.63 1014.95 1015.43 1015.67 1015.98 1016.11
998.92 1000.00 1000.58 1000.99 1001.93 1002.55 1003.10 1003.84 1004.44 1005.06 1005.62 1006.00 1006.48 1006.88 1007.36 1007.79 1008.20 1008.64 1008.78 1008.96 1009.15 1009.63 1010.01 1010.28 1010.41 1010.79 1011.16 1011.66 1011.98 1012.13 1012.26 1012.52 1012.84 1013.20 1013.65 1014.10 1014.53 1014.92 1015.32 1015.58 1015.95 1016.25 1016.49
999.39 1000.02 1000.56 1001.41 1002.45 1003.57 1004.35 1004.93 1004.96 1005.20 1005.30 1005.55 1006.02 1006.51 1007.09 1007.68 1008.18 1008.43 1008.71 1009.18 1009.46 1009.81 1010.11 1010.47 1010.86 1011.25 1011.67 1011.91 1012.07 1012.27 1012.50 1012.81 1013.09 1013.37 1013.75 1014.20 1014.64 1015.03 1015.34 1015.56 1015.78 1016.15 1016.25
999.45 1000.07 1000.93 1001.89 1002.84 1003.69 1004.20 1005.27 1005.78 1005.70 1005.29 1005.12 1005.53 1006.23 1007.10 1007.46 1008.08 1008.59 1009.02 1009.47 1009.85 1010.07 1010.33 1010.70 1011.16 1011.48 1011.74 1011.94 1012.09 1012.31 1012.57 1012.89 1013.10 1013.43 1013.84 1014.14 1014.53 1014.88 1015.10 1015.32 1015.53 1015.84 1016.05
999.31 1000.15 1001.16 1002.01 1002.75 1003.44 1004.12 1004.77 1005.56 1006.37 1006.02 1006.29 1006.39 1006.56 1007.27 1007.91 1008.43 1008.87 1009.30 1009.78 1010.02 1010.19 1010.35 1010.68 1011.09 1011.46 1011.67 1011.85 1011.96 1012.17 1012.46 1012.78 1013.00 1013.30 1013.64 1013.89 1014.16 1014.49 1014.75 1015.06 1015.32 1015.56 1015.73
999.46 1000.08 1000.95 1001.62 1002.32 1003.24 1003.91 1004.54 1004.98 1005.68 1006.53 1007.53 1007.97 1007.90 1008.19 1008.48 1008.97 1009.39 1009.82 1010.33 1010.66 1010.40 1010.38 1010.58 1010.94 1011.22 1011.39 1011.64 1011.81 1012.02 1012.33 1012.54 1012.83 1012.99 1013.27 1013.52 1013.72 1014.01 1014.36 1014.54 1014.72 1014.87 1014.97
999.42 999.99 1000.66 1001.44 1002.03 1002.71 1003.52 1004.15 1004.79 1005.77 1006.78 1007.71 1008.42 1008.87 1009.26 1009.37 1009.67 1009.97 1010.11 1010.25 1010.28 1010.13 1010.18 1010.35 1010.45 1010.72 1010.93 1011.20 1011.49 1011.69 1011.93 1012.19 1012.33 1012.66 1012.93 1013.14 1013.35 1013.66 1013.72 1013.87 1014.04 1014.21 1014.32
999.64 1000.14 1000.84 1001.41 1001.66 1002.53 1003.29 1003.81 1004.83 1005.86 1006.71 1007.35 1008.19 1008.87 1009.23 1009.35 1009.94 1010.24 1010.16 1010.10 1009.98 1009.87 1009.88 1009.91 1009.88 1010.18 1010.50 1010.80 1011.06 1011.22 1011.71 1012.04 1012.18 1012.29 1012.42 1012.50 1012.73 1012.90 1013.06 1013.19 1013.36 1013.52 1013.49
999.65 999.84 1000.58 1001.31 1001.89 1002.32 1003.03 1003.91 1004.67 1005.53 1006.37 1007.23 1008.04 1008.67 1008.60 1009.08 1009.52 1009.70 1009.68 1009.65 1009.64 1009.70 1009.74 1009.79 1009.83 1010.00 1010.25 1010.40 1010.61 1011.06 1011.30 1011.49 1011.64 1011.85 1011.91 1012.04 1012.03 1012.29 1012.09 1012.34 1012.31 1012.45 1012.63
999.93 1000.27 1001.10 1001.47 1001.97 1002.66 1003.37 1003.80 1004.47 1005.22 1006.11 1007.22 1008.35 1009.50 1009.93 1009.83 1010.04 1010.17 1010.33 1010.43 1010.20 1010.57 1010.54 1010.39 1010.82 1011.26 1011.41 1011.38 1011.38 1011.42 1011.54 1011.74 1011.71 1011.76 1011.71 1011.63 1011.51 1011.43 1011.31 1011.38 1011.49 1011.55 1011.65
1000.90 1001.34 1001.47 1002.13 1003.06 1003.23 1003.71 1004.10 1004.87 1005.65 1006.82 1008.05 1009.16 1010.08 1010.14 1010.10 1010.36 1010.23 1010.98 1011.40 1011.57 1011.85 1012.07 1012.06 1012.37 1012.56 1012.79 1012.75 1012.76 1012.87 1012.96 1012.92 1012.62 1012.16 1011.79 1011.20 1010.92 1010.74 1010.91 1011.12 1011.14 1011.23 1011.37
1002.07 1002.13 1003.22 1003.92 1004.48 1004.56 1004.58 1005.44 1006.05 1006.33 1007.21 1008.49 1009.49 1010.34 1010.67 1010.82 1011.09 1011.47 1011.95 1012.62 1013.00 1013.13 1013.34 1013.68 1014.03 1014.10 1013.87 1013.94 1013.80 1013.78 1013.85 1013.77 1012.93 1012.17 1011.75 1011.40 1011.67 1011.45 1011.25 1011.43 1011.64 1011.58 1011.64
1004.23 1004.73 1004.81 1005.55 1006.77 1006.37 1006.48 1007.16 1008.10 1008.78 1009.45 1010.16 1010.91 1011.55 1012.03 1012.19 1012.33 1012.71 1013.10 1013.59 1014.05 1014.38 1014.82 1014.80 1015.05 1015.27 1015.40 1015.48 1015.20 1014.82 1014.72 1014.20 1013.36 1012.68 1012.46 1012.34 1012.55 1012.33 1012.33 1012.14 1012.28 1012.21 1012.23
1005.50 1006.73 1007.22 1007.97 1008.10 1008.15 1008.39 1008.81 1009.99 1010.75 1011.37 1011.91 1012.61 1013.16 1013.54 1013.83 1014.13 1014.37 1014.63 1014.95 1015.48 1015.88 1016.21 1016.29 1016.50 1016.56 1016.45 1016.38 1016.35 1015.84 1015.41 1014.36 1013.80 1013.61 1013.12 1013.14 1013.26 1013.47 1013.34 1013.38 1013.14 1013.06 1013.13
Wind_Speed
8 7 8 7 12 10 8 7 7 6 7 7 7 7 7 7 7 6 6 6 7 6 5 5 5 3 2 3 3 3 3 3 3 1 2 2 3 4 4 7 6 7 5
8 7 8 11 10 10 9 7 8 8 8 9 8 8 8 8 7 7 6 5 7 7 6 5 6 4 5 4 4 4 3 2 4 5 4 3 5 7 6 9 7 5 5
12 12 10 11 11 9 10 9 11 10 8 8 8 8 8 7 7 7 7 6 7 7 6 6 6 5 5 3 4 4 4 3 3 6 4 3 4 5 8 8 7 7 5
13 12 12 10 11 10 9 9 8 7 9 8 7 7 7 6 5 5 6 5 4 4 5 5 5 6 7 6 6 6 5 5 6 6 6 4 3 5 6 7 6 4 5
13 13 11 11 10 10 10 8 7 8 7 7 8 8 8 7 3 5 4 5 6 6 5 3 3 4 9 8 5 5 8 6 7 6 4 3 4 4 6 3 6 6 5
14 14 13 13 11 9 8 7 7 6 6 8 9 8 8 5 5 8 5 5 5 6 5 5 5 5 7 9 8 11 12 11 8 6 3 6 4 7 6 7 8 7 4
14 14 12 12 11 9 7 8 7 7 9 8 9 9 8 5 6 6 4 4 4 4 5 6 4 3 6 6 9 12 11 9 10 10 11 8 7 7 8 8 7 5 4
13 12 12 10 9 8 7 9 7 7 9 8 8 7 7 4 4 4 7 5 6 5 5 9 8 6 6 8 12 9 7 5 7 6 8 8 8 9 9 7 9 8 7
14 12 11 14 10 7 9 8 8 7 6 6 7 8 7 5 6 7 7 5 6 7 5 6 6 7 7 12 11 10 8 5 7 12 12 13 14 12 10 10 8 10 5
13 13 11 11 11 9 9 8 4 6 6 6 8 7 8 6 7 8 6 4 5 5 6 6 8 8 11 12 11 10 10 6 9 8 8 8 9 10 12 9 10 10 6
13 12 11 8 9 9 9 6 6 6 7 8 8 5 6 6 4 7 6 4 4 4 5 4 3 11 11 11 11 9 9 9 10 8 7 7 8 8 4 5 7 10 8
14 12 11 10 9 9 10 5 7 7 9 8 7 6 5 5 5 4 7 8 7 6 5 4 3 9 11 12 9 14 15 11 7 7 6 6 6 6 5 5 5 5 2
13 10 8 12 9 7 7 7 7 8 7 6 5 6 5 4 4 8 8 8 9 6 5 7 10 13 14 12 14 13 9 7 7 6 6 5 5 5 5 5 4 4 2
13 9 9 11 8 5 4 5 5 5 6 6 5 5 6 5 4 4 6 7 11 9 11 6 8 10 9 9 7 5 5 6 6 6 6 5 4 4 3 3 3 4 2
9 8 8 8 9 8 7 4 3 2 2 9 6 7 8 6 5 6 8 6 6 7 8 5 5 6 6 4 4 5 5 5 5 5 6 6 5 3 3 3 3 3 3
8 7 6 7 7 7 8 7 13 7 6 6 13 9 5 10 11 10 14 13 13 11 5 6 6 6 6 4 5 5 5 5 5 4 4 5 5 5 5 3 2 3 3
9 8 7 9 8 8 7 7 8 7 20 19 10 14 13 12 13 13 14 14 10 3 4 6 6 5 4 3 4 4 4 3 5 5 5 5 5 4 4 5 5 4 5
7 11 8 7 9 8 8 7 6 7 7 6 13 10 11 12 13 12 13 9 1 1 2 5 6 6 5 5 4 4 4 5 5 5 6 5 5 6 4 4 5 5 5
9 8 5 5 7 9 8 8 7 8 8 7 6 8 7 11 11 9 6 3 3 3 3 3 3 4 4 4 4 4 5 5 4 4 4 4 5 5 5 6 5 8 8
7 10 7 5 9 8 6 8 9 9 9 9 7 7 4 5 3 4 4 2 2 3 3 4 4 5 5 5 5 4 5 5 5 5 6 6 6 6 7 6 7 7 6
8 7 11 6 5 8 8 9 8 9 9 8 7 7 9 8 7 5 5 3 2 1 3 3 3 4 4 5 5 6 5 7 6 6 6 6 6 6 7 6 5 6 5
4 5 5 5 3 5 5 9 8 8 9 8 6 5 6 4 3 1 3 5 5 6 7 5 7 8 8 7 6 4 1 1 1 3 3 4 6 7 6 5 6 6 6
11 9 9 9 6 9 5 5 6 9 10 9 8 6 2 5 5 3 8 8 8 9 9 9 9 9 8 8 8 7 6 5 5 4 5 3 4 4 4 4 5 4 6
13 13 13 12 8 9 11 13 11 13 13 12 10 9 9 9 10 13 11 10 10 10 10 10 11 13 10 9 8 8 6 5 5 4 6 3 5 6 5 4 7 7 2
13 12 12 12 7 9 13 14 13 13 13 12 11 11 10 10 11 12 11 11 11 11 12 11 10 14 16 16 14 14 10 10 8 6 7 9 11 12 9 8 9 7 9
14 12 11 9 9 11 12 13 13 12 12 12 11 11 11 11 11 11 11 11 11 11 12 9 13 16 16 14 14 10 8 10 12 11 10 11 9 9 8 9 13 9 11
Wind_Direction
131 137 147 136 141 140 139 141 150 141 135 136 138 140 142 131 143 145 168 163 163 154 154 168 197 153 182 169 140 137 145 131 129 306 114 130 118 126 95 99 97 110 113
130 117 117 129 128 132 139 145 142 127 129 134 139 134 133 136 146 161 168 164 158 169 183 177 206 198 192 168 153 156 152 129 123 113 57 80 83 108 92 101 97 89 104
113 114 113 118 123 121 119 119 124 132 136 137 137 143 142 153 164 171 170 164 177 182 181 190 206 170 185 158 166 164 144 118 98 126 110 60 68 88 85 78 81 71 81
117 116 111 116 113 110 108 113 113 123 128 125 143 153 160 164 157 170 167 170 196 194 180 193 199 181 181 172 168 166 138 113 104 112 109 88 89 83 86 106 93 83 93
121 121 122 121 112 110 109 107 108 106 125 118 100 96 87 82 67 113 151 160 157 160 167 193 114 220 185 181 157 151 129 127 128 120 104 105 114 117 127 109 110 104 73
126 123 122 120 115 113 113 113 118 115 115 107 107 103 99 89 59 63 111 148 150 175 177 111 96 110 107 123 148 145 147 144 141 141 129 141 130 118 124 131 130 129 112
130 135 129 126 130 134 136 124 113 113 109 112 103 97 91 89 62 65 86 124 126 157 169 123 142 140 116 113 93 114 115 126 149 149 159 154 144 145 140 140 141 122 115
138 126 126 120 114 115 109 112 109 105 106 102 95 96 95 77 64 80 85 94 86 86 99 137 146 154 133 109 107 100 98 110 124 131 137 130 128 139 144 141 123 106 102
118 124 127 122 131 121 117 122 117 103 101 106 113 105 102 93 85 88 85 74 75 67 61 99 114 113 117 114 105 103 96 70 50 113 116 126 138 138 133 128 134 136 133
135 132 131 129 130 120 125 121 109 115 112 99 105 104 114 111 92 102 96 94 85 87 67 60 71 111 103 122 121 118 113 119 116 111 106 100 122 136 146 155 153 151 144
131 128 115 106 126 129 127 128 123 116 106 111 107 109 101 101 95 117 122 107 113 93 95 82 61 106 107 106 117 124 125 122 113 119 121 121 132 145 129 137 161 162 157
126 117 120 129 136 134 135 122 122 120 117 121 124 107 90 88 68 93 94 102 117 106 101 90 90 100 102 95 96 118 120 116 117 124 125 133 140 140 141 152 135 135 184
120 113 124 136 131 124 126 124 124 131 135 139 132 128 118 97 83 73 80 87 95 101 101 101 104 95 94 89 115 115 115 120 128 130 134 134 140 138 111 102 103 142 271
117 116 123 129 114 100 101 130 134 142 139 142 143 133 127 121 110 108 107 95 88 90 106 102 95 91 94 115 116 110 122 130 141 143 139 124 114 130 119 134 135 164 187
116 129 111 104 100 93 68 26 90 82 161 156 152 146 142 142 158 148 128 122 120 113 116 107 101 112 123 127 122 122 123 131 139 137 139 138 148 140 150 161 150 167 188
139 119 118 114 115 130 120 86 47 35 47 150 134 135 126 129 135 130 124 126 129 139 112 118 123 134 145 152 147 145 146 146 147 136 129 147 161 178 163 168 164 188 200
131 136 138 133 136 131 120 122 106 69 68 51 55 119 120 138 129 135 134 134 149 106 134 133 140 152 168 162 157 155 155 157 144 158 163 176 164 185 165 182 202 208 223
131 145 153 156 146 140 137 133 122 107 94 67 35 74 96 114 119 123 124 108 125 76 139 151 161 174 179 176 182 161 165 151 172 165 177 190 181 187 184 198 200 206 221
138 148 144 120 135 140 144 145 130 111 108 111 108 69 71 89 105 124 151 142 181 165 162 185 164 153 162 157 174 155 161 173 175 170 188 194 186 198 209 211 216 219 210
107 132 115 150 136 139 145 131 122 126 133 136 130 135 147 125 124 165 204 216 202 183 177 179 168 155 172 174 177 175 168 179 196 194 208 209 207 212 225 224 219 225 216
153 160 128 137 142 148 129 127 132 140 141 142 148 161 161 148 161 178 205 234 239 259 213 184 201 174 173 187 172 184 183 191 196 199 209 221 223 222 232 213 203 211 226
161 122 138 161 149 128 118 143 146 146 135 134 130 75 41 62 81 45 4 11 21 38 23 42 57 52 47 39 38 30 37 20 3 311 269 239 230 223 217 213 227 229 232
81 102 83 64 67 95 73 79 94 104 106 99 104 106 53 83 68 61 72 67 60 59 44 47 57 53 39 39 43 49 36 12 337 333 334 316 279 237 241 252 225 246 261
57 67 87 64 45 72 78 82 72 77 108 112 111 86 67 74 80 81 79 72 62 59 63 62 61 59 48 42 37 40 37 358 325 339 328 15 21 12 25 28 20 6 318
69 61 60 71 56 77 82 76 72 72 73 78 76 72 65 61 66 72 72 76 73 66 58 56 55 55 51 47 42 39 6 323 357 358 37 55 52 35 24 34 11 15 20
79 71 70 75 71 70 73 79 77 71 72 73 72 68 66 63 60 61 65 70 71 70 64 58 60 60 56 47 33 18 6 30 42 29 49 49 52 45 41 36 26 29 17